| time (UTC) | temp F | wind direction | speed MPH | gust MPH | rain 1hr in | rain 24hr in | rain mn in | humidity % | barometer mb |
| 20260508080034 | 56 | 0 | 0.0 | 0.0 | 0.00 | 0.02 | 0.00 | 93 | 1015.2 |
| 20260508074536 | 55 | 0 | 0.0 | 0.0 | 0.00 | 0.14 | 0.00 | 92 | 1015.4 |
| 20260508073039 | 56 | 0 | 0.0 | 0.0 | 0.00 | 0.14 | 0.00 | 92 | 1015.7 |
| 20260508071533 | 56 | 0 | 0.0 | 0.0 | 0.00 | 0.14 | 0.00 | 92 | 1015.8 |
| 20260508070128 | 57 | 0 | 0.0 | 0.0 | 0.00 | 0.14 | 0.00 | 92 | 1015.7 |
| 20260508064538 | 57 | 0 | 0.0 | 0.0 | 0.00 | 0.15 | 0.00 | 92 | 1015.6 |
| 20260508063037 | 57 | 0 | 0.0 | 0.0 | 0.00 | 0.15 | 0.00 | 92 | 1015.8 |
| 20260508061537 | 57 | 0 | 0.0 | 0.0 | 0.00 | 0.15 | 0.00 | 91 | 1015.8 |
| 20260508060035 | 57 | 0 | 0.0 | 0.0 | 0.00 | 0.15 | 0.00 | 89 | 1016.0 |
| 20260508054543 | 58 | 0 | 0.0 | 0.0 | 0.00 | 0.17 | 0.00 | 89 | 1016.2 |
| 20260508053038 | 58 | 0 | 0.0 | 0.0 | 0.00 | 0.17 | 0.00 | 89 | 1016.5 |
| 20260508051538 | 58 | 0 | 0.0 | 0.0 | 0.00 | 0.17 | 0.00 | 89 | 1016.5 |
| 20260508050039 | 59 | 0 | 0.0 | 0.0 | 0.00 | 0.17 | 0.00 | 89 | 1016.8 |
| 20260508044535 | 59 | 0 | 0.0 | 0.0 | 0.00 | 0.25 | 0.17 | 89 | 1016.7 |
| 20260508043056 | 59 | 0 | 0.0 | 0.0 | 0.00 | 0.25 | 0.17 | 87 | 1016.7 |
| 20260508041537 | 59 | 0 | 0.0 | 0.0 | 0.00 | 0.25 | 0.17 | 88 | 1016.6 |
| 20260508040036 | 60 | 0 | 0.0 | 0.0 | 0.00 | 0.25 | 0.17 | 88 | 1016.5 |
| 20260508034539 | 60 | 0 | 0.0 | 0.0 | 0.00 | 0.60 | 0.17 | 87 | 1016.7 |
| 20260508033035 | 60 | 0 | 0.0 | 0.0 | 0.00 | 0.60 | 0.17 | 86 | 1016.5 |
| 20260508031533 | 60 | 0 | 0.0 | 0.0 | 0.00 | 0.60 | 0.17 | 86 | 1016.4 |
| 20260508030049 | 60 | 0 | 0.0 | 0.0 | 0.00 | 0.60 | 0.17 | 85 | 1016.3 |
| 20260508024538 | 61 | 0 | 0.0 | 0.0 | 0.00 | 0.98 | 0.17 | 84 | 1016.3 |
| 20260508023043 | 61 | 0 | 0.0 | 0.0 | 0.00 | 0.98 | 0.17 | 87 | 1015.9 |
| 20260508021537 | 61 | 0 | 0.0 | 0.0 | 0.00 | 0.98 | 0.17 | 87 | 1015.7 |
| 20260508020040 | 61 | 0 | 0.0 | 0.0 | 0.00 | 0.98 | 0.17 | 86 | 1015.8 |
| 20260508014539 | 61 | 0 | 0.0 | 0.0 | 0.00 | 0.98 | 0.17 | 86 | 1015.6 |
| 20260508013038 | 62 | 0 | 0.0 | 0.0 | 0.00 | 0.98 | 0.17 | 86 | 1015.7 |
| 20260508011536 | 62 | 0 | 0.0 | 0.0 | 0.00 | 0.98 | 0.17 | 83 | 1015.6 |
| 20260508010035 | 63 | 0 | 0.0 | 0.0 | 0.00 | 0.98 | 0.17 | 82 | 1015.6 |
| 20260508004538 | 64 | 0 | 0.0 | 0.0 | 0.00 | 0.98 | 0.17 | 82 | 1015.3 |
| 20260508003037 | 65 | 0 | 0.0 | 3.0 | 0.00 | 0.98 | 0.17 | 80 | 1015.3 |
| 20260508001536 | 66 | 0 | 0.0 | 2.0 | 0.00 | 0.98 | 0.17 | 80 | 1015.2 |
| 20260508000034 | 66 | 0 | 0.0 | 3.0 | 0.00 | 0.98 | 0.17 | 81 | 1015.0 |
| 20260507234540 | 67 | 0 | 0.0 | 0.0 | 0.00 | 0.98 | 0.17 | 83 | 1014.7 |
| 20260507233040 | 67 | 0 | 0.0 | 0.0 | 0.00 | 0.98 | 0.17 | 84 | 1014.8 |
| 20260507231538 | 68 | 0 | 0.0 | 0.0 | 0.00 | 0.98 | 0.17 | 79 | 1014.7 |
| 20260507230036 | 68 | 0 | 0.0 | 0.0 | 0.00 | 0.98 | 0.17 | 79 | 1014.5 |
| 20260507224535 | 69 | 0 | 0.0 | 1.0 | 0.00 | 0.98 | 0.17 | 78 | 1014.4 |
| 20260507223034 | 69 | 0 | 0.0 | 2.0 | 0.00 | 0.98 | 0.17 | 76 | 1014.5 |
| 20260507221539 | 69 | 0 | 0.0 | 3.0 | 0.00 | 0.98 | 0.17 | 77 | 1014.5 |
| 20260507220037 | 69 | 0 | 0.0 | 1.0 | 0.00 | 0.98 | 0.17 | 75 | 1014.4 |
| 20260507214538 | 69 | 311 | 0.0 | 4.0 | 0.00 | 1.04 | 0.17 | 75 | 1014.4 |
| 20260507213038 | 69 | 0 | 1.0 | 4.0 | 0.00 | 1.04 | 0.17 | 74 | 1014.4 |
| 20260507211533 | 70 | 0 | 0.0 | 3.0 | 0.00 | 1.04 | 0.17 | 75 | 1014.3 |
| 20260507210039 | 69 | 0 | 0.0 | 2.0 | 0.00 | 1.04 | 0.17 | 76 | 1014.0 |
| 20260507204538 | 69 | 0 | 0.0 | 4.0 | 0.00 | 1.20 | 0.17 | 78 | 1014.3 |
| 20260507203036 | 69 | 0 | 0.0 | 2.0 | 0.00 | 1.20 | 0.17 | 76 | 1014.4 |
| 20260507201540 | 70 | 216 | 0.0 | 4.0 | 0.00 | 1.20 | 0.17 | 73 | 1014.5 |
| 20260507200037 | 71 | 0 | 0.0 | 3.0 | 0.00 | 1.20 | 0.17 | 73 | 1014.6 |
| 20260507194547 | 71 | 153 | 0.0 | 5.0 | 0.00 | 1.20 | 0.17 | 75 | 1014.6 |
| 20260507193040 | 70 | 317 | 0.0 | 3.0 | 0.00 | 1.20 | 0.17 | 77 | 1014.6 |
| 20260507191542 | 68 | 314 | 0.0 | 4.0 | 0.00 | 1.20 | 0.17 | 78 | 1014.6 |
| 20260507190038 | 68 | 113 | 2.0 | 4.0 | 0.00 | 1.20 | 0.17 | 76 | 1014.8 |
| 20260507184537 | 67 | 149 | 0.0 | 1.0 | 0.00 | 1.20 | 0.17 | 79 | 1014.9 |
| 20260507183045 | 66 | 116 | 0.0 | 2.0 | 0.00 | 1.20 | 0.17 | 82 | 1015.3 |
| 20260507181539 | 67 | 0 | 0.0 | 3.0 | 0.00 | 1.20 | 0.17 | 80 | 1015.3 |
| 20260507180041 | 66 | 102 | 0.0 | 3.0 | 0.00 | 1.20 | 0.17 | 83 | 1015.3 |
| 20260507174538 | 66 | 162 | 0.0 | 5.0 | 0.00 | 1.20 | 0.17 | 85 | 1015.5 |
| 20260507173035 | 65 | 164 | 1.0 | 7.0 | 0.00 | 1.20 | 0.17 | 88 | 1015.6 |
| 20260507171548 | 62 | 135 | 0.0 | 3.0 | 0.00 | 1.20 | 0.17 | 92 | 1015.8 |
| 20260507170039 | 61 | 122 | 0.0 | 5.0 | 0.00 | 1.20 | 0.17 | 91 | 1015.9 |
| 20260507164554 | 61 | 0 | 0.0 | 2.0 | 0.00 | 1.20 | 0.17 | 94 | 1015.9 |
| 20260507163039 | 61 | 134 | 1.0 | 4.0 | 0.00 | 1.20 | 0.17 | 93 | 1015.6 |
| 20260507161539 | 61 | 134 | 0.0 | 3.0 | 0.00 | 1.20 | 0.17 | 93 | 1015.6 |
| 20260507160040 | 61 | 0 | 0.0 | 3.0 | 0.00 | 1.20 | 0.17 | 93 | 1015.4 |
| 20260507154537 | 62 | 146 | 0.0 | 5.0 | 0.00 | 1.20 | 0.17 | 93 | 1015.3 |
| 20260507153039 | 63 | 162 | 0.0 | 3.0 | 0.00 | 1.20 | 0.17 | 94 | 1014.9 |
| 20260507151538 | 63 | 261 | 0.0 | 3.0 | 0.00 | 1.20 | 0.17 | 95 | 1014.8 |
| 20260507150035 | 63 | 0 | 0.0 | 2.0 | 0.00 | 1.20 | 0.17 | 95 | 1014.6 |
| 20260507144540 | 62 | 0 | 0.0 | 4.0 | 0.00 | 1.20 | 0.17 | 97 | 1014.8 |
| 20260507143055 | 62 | 0 | 0.0 | 1.0 | 0.00 | 1.20 | 0.17 | 97 | 1014.6 |
| 20260507141553 | 61 | 0 | 0.0 | 4.0 | 0.00 | 1.20 | 0.17 | 97 | 1015.0 |
| 20260507140042 | 61 | 0 | 0.0 | 2.0 | 0.00 | 1.20 | 0.17 | 98 | 1014.6 |
| 20260507134540 | 60 | 0 | 0.0 | 1.0 | 0.00 | 1.20 | 0.17 | 97 | 1014.3 |
| 20260507133040 | 60 | 0 | 0.0 | 1.0 | 0.01 | 1.20 | 0.17 | 98 | 1014.4 |
| 20260507131546 | 60 | 0 | 0.0 | 1.0 | 0.01 | 1.20 | 0.17 | 97 | 1014.0 |
| 20260507130041 | 59 | 0 | 0.0 | 0.0 | 0.01 | 1.20 | 0.17 | 97 | 1013.7 |
| 20260507124537 | 60 | 155 | 0.0 | 4.0 | 0.00 | 1.19 | 0.16 | 97 | 1013.9 |
| 20260507123043 | 60 | 0 | 0.0 | 2.0 | 0.00 | 1.19 | 0.16 | 97 | 1013.6 |
| 20260507121542 | 60 | 153 | 0.0 | 1.0 | 0.00 | 1.19 | 0.16 | 97 | 1013.2 |
| 20260507120036 | 59 | 162 | 0.0 | 1.0 | 0.00 | 1.19 | 0.16 | 97 | 1012.8 |
| 20260507114535 | 59 | 142 | 0.0 | 2.0 | 0.00 | 1.19 | 0.16 | 97 | 1012.7 |
| 20260507113040 | 59 | 0 | 0.0 | 1.0 | 0.00 | 1.19 | 0.16 | 97 | 1012.8 |
| 20260507111536 | 60 | 136 | 0.0 | 2.0 | 0.00 | 1.19 | 0.16 | 97 | 1012.3 |
| 20260507110037 | 60 | 0 | 1.0 | 6.0 | 0.00 | 1.19 | 0.16 | 97 | 1012.7 |
| 20260507104539 | 61 | 94 | 0.0 | 3.0 | 0.00 | 1.19 | 0.16 | 97 | 1012.2 |
| 20260507103036 | 62 | 112 | 0.0 | 4.0 | 0.01 | 1.19 | 0.16 | 97 | 1011.7 |
| 20260507101534 | 64 | 0 | 0.0 | 0.0 | 0.01 | 1.19 | 0.16 | 98 | 1011.6 |
| 20260507100037 | 64 | 0 | 0.0 | 0.0 | 0.01 | 1.19 | 0.16 | 98 | 1011.1 |
| 20260507094537 | 64 | 0 | 0.0 | 2.0 | 0.00 | 1.17 | 0.15 | 97 | 1011.2 |
| 20260507093037 | 64 | 0 | 0.0 | 3.0 | 0.00 | 1.17 | 0.15 | 97 | 1011.1 |
| 20260507091539 | 64 | 0 | 0.0 | 4.0 | 0.00 | 1.17 | 0.15 | 97 | 1011.1 |
| 20260507090049 | 65 | 0 | 0.0 | 1.0 | 0.00 | 1.17 | 0.15 | 97 | 1010.8 |
| 20260507084548 | 65 | 150 | 0.0 | 3.0 | 0.00 | 1.17 | 0.15 | 97 | 1011.1 |
| 20260507083039 | 65 | 0 | 0.0 | 0.0 | 0.01 | 1.17 | 0.15 | 98 | 1010.8 |
| 20260507081545 | 66 | 0 | 0.0 | 1.0 | 0.08 | 1.17 | 0.15 | 98 | 1010.6 |